Tracking 28126 objects as of 2-Oct-2023
HD Live streaming from Space Station
objects crossing your sky now

STARLINK-6235

Track STARLINK-6235 now!
10-day predictions
STARLINK-6235 is classified as:


NORAD ID: 57094
Int'l Code: 2023-088AY
Perigee: 565.4 km
Apogee: 567.1 km
Inclination: 43.0 °
Period: 95.8 minutes
Semi major axis: 6937 km
RCS: Unknown
Launch date: June 22, 2023
Source: United States (US)
Launch site: AIR FORCE WESTERN TEST RANGE (AFWTR)
Your satellite tracking list
Your tracking list is empty




NASA's NSSDC Master Catalog

Two Line Element Set (TLE):
1 57094U 23088AY  23274.62504183 -.00000731  00000-0 -39022-4 0  9996
2 57094  43.0021 250.5840 0001263 269.1308  90.9389 15.02531387 15720
Source of the keplerian elements: AFSPC